Elmira, NY

1:06 PM EDT on July 20, 2017 (GMT -0400)
Elmira-Corning Regional

Weather History for KELM - October, 2013

Change the Weather History Date:

Thursday, October 17, 2013

  Actual Average Record
Temperature  
Mean Temperature 54 °F -  
Max Temperature 66 °F 60 °F 85 °F (1947)
Min Temperature 43 °F 38 °F 24 °F (1937)
Degree Days  
Heating Degree Days 10    
Growing Degree Days 4 (Base 50)    
Moisture  
Dew Point 50 °F    
Average Humidity 82    
Maximum Humidity 100    
Minimum Humidity 43    
Precipitation  
Precipitation 0.95 in - - ()
Sea Level Pressure  
Sea Level Pressure 29.78 in    
Wind  
Wind Speed 4 mph (West)    
Max Wind Speed 12 mph    
Max Gust Speed 17 mph    
Visibility 9 miles    
Events Rain , Thunderstorm    
Averages and records for this station are not official NWS values.
T = Trace of Precipitation, MM = Missing Value Source: NWS Daily Summary

Daily Weather History Graph

Daily Weather History Graph

Search for Another Location

Airport or City:

Trip Planner

Search our weather history database for the weather conditions in past years. The results will help you decide how hot, cold, wet, or windy it might be!

Date:

Astronomy

Oct. 17, 2013 Rise Set
Actual Time 7:22 AM EDT 6:22 PM EDT
Civil Twilight 6:54 AM EDT 6:50 PM EDT
Nautical Twilight 6:21 AM EDT 7:22 PM EDT
Astronomical Twilight 5:49 AM EDT 7:55 PM EDT
Moon 5:35 PM EDT (10/17) 5:51 AM EDT (10/17)
Length of Visible Light 11h 56m
Length of Day
10h 59m
Waxing Gibbous, 98% of the Moon is Illuminated
Oct 17
Waxing Gibbous
Oct 18
Full
Oct 26
Last Quarter
Nov 3
New
Nov 10
First Quarter

Hourly Weather History & Observations

Time (EDT) Temp. Dew Point Humidity Pressure Visibility Wind Dir Wind Speed Gust Speed Precip Events Conditions
12:46 AM 59.0 °F 55.4 °F 88% 29.85 in 10.0 mi West 8.1 mph - 0.01 in Rain Light Rain
12:53 AM 60.1 °F 55.0 °F 83% 29.84 in 10.0 mi WSW 8.1 mph - 0.01 in   Overcast
1:53 AM 57.9 °F 55.9 °F 93% 29.86 in 8.0 mi SW 4.6 mph - 0.02 in   Overcast
2:03 AM 57.2 °F 55.4 °F 94% 29.86 in 9.0 mi SW 3.5 mph - N/A   Overcast
2:53 AM 57.9 °F 55.0 °F 90% 29.87 in 10.0 mi Calm Calm - N/A   Overcast
3:11 AM 57.2 °F 55.4 °F 94% 29.87 in 10.0 mi Calm Calm - N/A   Overcast
3:27 AM 57.2 °F 53.6 °F 88% 29.87 in 10.0 mi SW 4.6 mph - N/A   Overcast
3:53 AM 57.0 °F 53.1 °F 87% 29.87 in 10.0 mi Calm Calm - N/A   Overcast
4:53 AM 53.1 °F 46.9 °F 80% 29.89 in 10.0 mi Calm Calm - N/A   Clear
5:53 AM 48.9 °F 46.0 °F 90% 29.89 in 10.0 mi Calm Calm - N/A   Mostly Cloudy
6:46 AM 46.4 °F 44.6 °F 93% 29.90 in 10.0 mi Calm Calm - N/A   Partly Cloudy
6:53 AM 45.0 °F 43.0 °F 93% 29.91 in 10.0 mi Calm Calm - N/A   Partly Cloudy
7:53 AM 43.0 °F 43.0 °F 100% 29.91 in 10.0 mi Calm Calm - N/A   Scattered Clouds
8:53 AM 48.9 °F 46.9 °F 93% 29.91 in 10.0 mi Calm Calm - N/A   Scattered Clouds
9:53 AM 54.0 °F 48.9 °F 83% 29.91 in 10.0 mi Calm Calm - N/A   Clear
10:53 AM 59.0 °F 46.9 °F 64% 29.89 in 10.0 mi Variable 6.9 mph - N/A   Clear
11:53 AM 61.0 °F 44.1 °F 54% 29.88 in 10.0 mi WSW 6.9 mph - N/A   Clear
12:53 PM 63.0 °F 44.1 °F 50% 29.85 in 10.0 mi WSW 3.5 mph - N/A   Clear
1:53 PM 64.9 °F 45.0 °F 48% 29.82 in 10.0 mi South 4.6 mph - N/A   Clear
2:53 PM 66.0 °F 43.0 °F 43% 29.79 in 10.0 mi Calm Calm - N/A   Clear
3:53 PM 66.0 °F 44.1 °F 45% 29.75 in 10.0 mi Calm Calm - N/A   Scattered Clouds
4:53 PM 64.0 °F 45.0 °F 50% 29.72 in 10.0 mi NE 4.6 mph - N/A   Overcast
5:53 PM 61.0 °F 48.9 °F 64% 29.68 in 10.0 mi NE 5.8 mph - 0.00 in Rain Light Rain
6:53 PM 57.9 °F 52.0 °F 81% 29.66 in 10.0 mi NNW 3.5 mph - 0.01 in   Overcast
7:27 PM 55.4 °F 51.8 °F 88% 29.66 in 2.0 mi West 4.6 mph - 0.09 in Rain Heavy Rain
7:51 PM 55.4 °F 53.6 °F 94% 29.64 in 1.8 mi SE 5.8 mph - 0.29 in Rain Heavy Rain
7:53 PM 55.9 °F 53.1 °F 90% 29.64 in 1.8 mi East 5.8 mph - 0.31 in Rain Heavy Rain
8:14 PM 53.6 °F 51.8 °F 94% 29.63 in 1.8 mi Variable 4.6 mph - 0.20 in Rain , Thunderstorm Heavy Rain
8:35 PM 55.4 °F 51.8 °F 88% 29.66 in 1.2 mi NW 9.2 mph - 0.57 in Rain Rain
8:38 PM 55.4 °F 51.8 °F 88% 29.66 in 3.0 mi North 9.2 mph - 0.57 in Rain Light Rain
8:50 PM 55.4 °F 51.8 °F 88% 29.68 in 10.0 mi WNW 6.9 mph - 0.57 in Rain Light Rain
8:53 PM 55.0 °F 51.1 °F 86% 29.69 in 10.0 mi West 6.9 mph - 0.57 in Rain Light Rain
9:24 PM 55.4 °F 51.8 °F 88% 29.72 in 7.0 mi WSW 5.8 mph - 0.02 in Rain Light Rain
9:45 PM 55.4 °F 50.0 °F 82% 29.67 in 10.0 mi ENE 11.5 mph 17.3 mph 0.02 in Rain Light Rain
9:53 PM 54.0 °F 51.1 °F 90% 29.67 in 10.0 mi East 10.4 mph - 0.02 in   Mostly Cloudy
10:16 PM 53.6 °F 51.8 °F 94% 29.68 in 10.0 mi Calm Calm - N/A   Overcast
10:53 PM 54.0 °F 51.1 °F 90% 29.72 in 10.0 mi West 5.8 mph - N/A   Overcast
11:37 PM 53.6 °F 51.8 °F 94% 29.72 in 10.0 mi WNW 3.5 mph - N/A   Overcast
11:53 PM 54.0 °F 50.0 °F 86% 29.72 in 10.0 mi SW 4.6 mph - 0.01 in   Overcast